Time,TemperatureF,DewpointF,PressureIn,WindDirection,WindDirectionDegrees,WindSpeedMPH,WindSpeedGustMPH,Humidity,HourlyPrecipIn,Conditions,Clouds,dailyrainin,SoftwareType,DateUTC
2013-08-17 00:00:00,80.9,72.6,29.97,ENE,68,0.0,0.0,76,0.00,,,0.00,WSDL version 420,2013-08-17 04:00:00,
2013-08-17 00:05:00,80.7,72.8,29.97,ENE,68,0.0,0.0,77,0.00,,,0.00,WSDL version 420,2013-08-17 04:05:00,
2013-08-17 00:10:00,80.6,72.7,29.97,ENE,68,0.0,0.0,77,0.00,,,0.00,WSDL version 420,2013-08-17 04:10:00,
2013-08-17 00:15:00,80.4,72.7,29.97,ENE,68,0.0,0.0,78,0.00,,,0.00,WSDL version 420,2013-08-17 04:15:00,
2013-08-17 00:20:00,80.2,72.8,29.97,ENE,68,0.0,0.0,78,0.00,,,0.00,WSDL version 420,2013-08-17 04:20:00,
2013-08-17 00:25:00,80.2,72.8,29.97,ENE,68,0.0,0.0,78,0.00,,,0.00,WSDL version 420,2013-08-17 04:25:00,
2013-08-17 00:30:00,80.1,73.0,29.97,ENE,68,0.0,0.0,79,0.00,,,0.00,WSDL version 420,2013-08-17 04:30:00,
2013-08-17 00:35:00,80.1,73.0,29.97,ENE,68,0.0,0.0,79,0.00,,,0.00,WSDL version 420,2013-08-17 04:35:00,
2013-08-17 00:40:00,79.9,72.9,29.97,ENE,68,0.0,0.0,80,0.00,,,0.00,WSDL version 420,2013-08-17 04:40:00,
2013-08-17 00:45:00,79.9,73.2,29.94,ENE,68,0.0,0.0,80,0.00,,,0.00,WSDL version 420,2013-08-17 04:45:00,
2013-08-17 00:50:00,79.9,73.4,29.94,ENE,68,0.0,0.0,81,0.00,,,0.00,WSDL version 420,2013-08-17 04:50:00,
2013-08-17 00:55:00,79.7,73.4,29.94,ENE,68,0.0,0.0,81,0.00,,,0.00,WSDL version 420,2013-08-17 04:55:00,
2013-08-17 01:00:00,79.7,73.4,29.94,ENE,68,0.0,0.0,81,0.00,,,0.00,WSDL version 420,2013-08-17 05:00:00,
2013-08-17 01:05:00,79.7,73.4,29.94,ENE,68,0.0,0.0,81,0.00,,,0.00,WSDL version 420,2013-08-17 05:05:00,
2013-08-17 01:10:00,79.6,73.4,29.94,ENE,68,0.0,0.0,82,0.00,,,0.00,WSDL version 420,2013-08-17 05:10:00,
2013-08-17 01:15:00,79.5,73.6,29.94,ENE,68,0.0,0.0,82,0.00,,,0.00,WSDL version 420,2013-08-17 05:15:00,
2013-08-17 01:20:00,79.3,73.4,29.94,ENE,68,0.0,0.0,82,0.00,,,0.00,WSDL version 420,2013-08-17 05:20:00,
2013-08-17 01:25:00,79.3,73.4,29.94,ENE,68,0.0,0.0,82,0.00,,,0.00,WSDL version 420,2013-08-17 05:25:00,
2013-08-17 01:30:00,79.3,73.5,29.94,ENE,68,0.0,0.0,83,0.00,,,0.00,WSDL version 420,2013-08-17 05:30:00,
2013-08-17 01:35:00,79.2,73.7,29.94,ENE,68,0.0,0.0,83,0.00,,,0.00,WSDL version 420,2013-08-17 05:35:00,
2013-08-17 01:40:00,79.2,73.7,29.94,ENE,68,0.0,0.0,83,0.00,,,0.00,WSDL version 420,2013-08-17 05:40:00,
2013-08-17 01:45:00,79.2,73.7,29.94,ENE,68,0.0,0.0,83,0.00,,,0.00,WSDL version 420,2013-08-17 05:45:00,
2013-08-17 01:50:00,79.2,74.0,29.94,ENE,68,0.0,0.0,84,0.00,,,0.00,WSDL version 420,2013-08-17 05:50:00,
2013-08-17 01:55:00,79.0,73.9,29.94,ENE,68,0.0,0.0,84,0.00,,,0.00,WSDL version 420,2013-08-17 05:55:00,
2013-08-17 02:00:00,79.0,73.9,29.94,ENE,68,0.0,0.0,84,0.00,,,0.00,WSDL version 420,2013-08-17 06:00:00,
2013-08-17 02:05:00,79.0,74.0,29.94,ENE,68,0.0,0.0,86,0.00,,,0.00,WSDL version 420,2013-08-17 06:05:00,
2013-08-17 02:10:00,79.0,74.3,29.94,ENE,68,0.0,0.0,86,0.00,,,0.00,WSDL version 420,2013-08-17 06:10:00,
2013-08-17 02:15:00,79.0,74.3,29.94,ENE,68,0.0,0.0,86,0.00,,,0.00,WSDL version 420,2013-08-17 06:15:00,
2013-08-17 02:20:00,79.0,74.3,29.94,ENE,68,0.0,0.0,86,0.00,,,0.00,WSDL version 420,2013-08-17 06:20:00,
2013-08-17 02:25:00,79.0,74.4,29.94,ENE,68,0.0,0.0,86,0.00,,,0.00,WSDL version 420,2013-08-17 06:25:00,
2013-08-17 02:30:00,78.8,74.5,29.94,ENE,68,0.0,0.0,87,0.00,,,0.00,WSDL version 420,2013-08-17 06:30:00,
2013-08-17 02:35:00,78.8,74.5,29.94,ENE,68,0.0,0.0,87,0.00,,,0.00,WSDL version 420,2013-08-17 06:35:00,
2013-08-17 02:40:00,78.8,74.5,29.94,ENE,68,0.0,0.0,87,0.00,,,0.00,WSDL version 420,2013-08-17 06:40:00,
2013-08-17 02:45:00,78.8,74.5,29.94,ENE,68,0.0,0.0,87,0.00,,,0.00,WSDL version 420,2013-08-17 06:45:00,
2013-08-17 02:50:00,78.8,74.5,29.94,ENE,68,0.0,0.0,87,0.00,,,0.00,WSDL version 420,2013-08-17 06:50:00,
2013-08-17 02:55:00,78.8,74.5,29.94,ENE,68,0.0,0.0,87,0.00,,,0.00,WSDL version 420,2013-08-17 06:55:00,
2013-08-17 03:00:00,78.8,74.5,29.94,ENE,68,0.0,0.0,87,0.00,,,0.00,WSDL version 420,2013-08-17 07:00:00,
2013-08-17 03:05:00,79.0,74.7,29.94,ENE,68,0.0,0.0,87,0.00,,,0.00,WSDL version 420,2013-08-17 07:05:00,
2013-08-17 03:10:00,79.0,74.7,29.94,ENE,68,0.0,0.0,87,0.00,,,0.00,WSDL version 420,2013-08-17 07:10:00,
2013-08-17 03:15:00,79.0,74.8,29.94,ENE,68,0.0,0.0,88,0.00,,,0.00,WSDL version 420,2013-08-17 07:15:00,
2013-08-17 03:20:00,79.0,74.8,29.94,ENE,68,0.0,0.0,87,0.00,,,0.00,WSDL version 420,2013-08-17 07:20:00,
2013-08-17 03:25:00,79.0,74.7,29.94,ENE,68,0.0,0.0,87,0.00,,,0.00,WSDL version 420,2013-08-17 07:25:00,
2013-08-17 03:30:00,79.0,74.7,29.94,ENE,68,0.0,0.0,87,0.00,,,0.00,WSDL version 420,2013-08-17 07:30:00,
2013-08-17 03:35:00,79.0,74.8,29.94,ENE,68,0.0,0.0,88,0.00,,,0.00,WSDL version 420,2013-08-17 07:35:00,
2013-08-17 03:40:00,79.0,75.0,29.94,ENE,68,0.0,0.0,88,0.00,,,0.00,WSDL version 420,2013-08-17 07:40:00,
2013-08-17 03:45:00,78.8,74.9,29.91,ENE,68,0.0,0.0,88,0.00,,,0.00,WSDL version 420,2013-08-17 07:45:00,
2013-08-17 03:50:00,78.8,74.9,29.91,ENE,68,0.0,0.0,88,0.00,,,0.00,WSDL version 420,2013-08-17 07:50:00,
2013-08-17 03:55:00,78.8,74.9,29.91,ENE,68,0.0,0.0,88,0.00,,,0.00,WSDL version 420,2013-08-17 07:55:00,
2013-08-17 04:00:00,78.8,74.9,29.91,North,0,0.0,0.0,88,0.00,,,0.00,WSDL version 420,2013-08-17 08:00:00,
2013-08-17 04:05:00,78.8,74.9,29.91,ENE,68,0.0,0.0,88,0.00,,,0.00,WSDL version 420,2013-08-17 08:05:00,
2013-08-17 04:10:00,78.8,74.9,29.91,ENE,68,0.0,0.0,88,0.00,,,0.00,WSDL version 420,2013-08-17 08:10:00,
2013-08-17 04:15:00,78.6,75.1,29.91,ENE,68,0.0,0.0,89,0.00,,,0.00,WSDL version 420,2013-08-17 08:15:00,
2013-08-17 04:20:00,78.6,75.1,29.91,ENE,68,0.0,0.0,89,0.00,,,0.00,WSDL version 420,2013-08-17 08:20:00,
2013-08-17 04:25:00,78.6,75.1,29.91,ENE,68,0.0,0.0,89,0.00,,,0.00,WSDL version 420,2013-08-17 08:25:00,
2013-08-17 04:30:00,78.6,75.1,29.91,ENE,68,0.0,0.0,89,0.00,,,0.00,WSDL version 420,2013-08-17 08:30:00,
2013-08-17 04:35:00,78.6,75.1,29.91,ENE,68,0.0,0.0,89,0.00,,,0.00,WSDL version 420,2013-08-17 08:35:00,
2013-08-17 04:40:00,78.6,75.1,29.91,ENE,68,0.0,0.0,89,0.00,,,0.00,WSDL version 420,2013-08-17 08:40:00,
2013-08-17 04:45:00,78.6,75.0,29.94,ENE,68,0.0,0.0,89,0.00,,,0.00,WSDL version 420,2013-08-17 08:45:00,
2013-08-17 04:50:00,78.4,74.9,29.94,ENE,68,0.0,0.0,89,0.00,,,0.00,WSDL version 420,2013-08-17 08:50:00,
2013-08-17 04:55:00,78.4,74.9,29.94,ENE,68,0.0,0.0,89,0.00,,,0.00,WSDL version 420,2013-08-17 08:55:00,
2013-08-17 05:00:00,78.4,75.0,29.91,ENE,68,0.0,0.0,90,0.00,,,0.00,WSDL version 420,2013-08-17 09:00:00,
2013-08-17 05:05:00,78.4,75.3,29.91,ENE,68,0.0,0.0,90,0.00,,,0.00,WSDL version 420,2013-08-17 09:05:00,
2013-08-17 05:10:00,78.4,75.3,29.91,ENE,68,0.0,0.0,90,0.00,,,0.00,WSDL version 420,2013-08-17 09:10:00,
2013-08-17 05:15:00,78.3,75.1,29.94,ENE,68,0.0,0.0,90,0.00,,,0.00,WSDL version 420,2013-08-17 09:15:00,
2013-08-17 05:20:00,78.4,75.2,29.94,ENE,68,0.0,0.0,90,0.00,,,0.00,WSDL version 420,2013-08-17 09:20:00,
2013-08-17 05:25:00,78.3,75.1,29.94,ENE,68,0.0,0.0,90,0.00,,,0.00,WSDL version 420,2013-08-17 09:25:00,
2013-08-17 05:30:00,78.4,75.2,29.91,ENE,68,0.0,0.0,90,0.00,,,0.00,WSDL version 420,2013-08-17 09:30:00,
2013-08-17 05:35:00,78.4,75.2,29.91,ENE,68,0.0,0.0,90,0.00,,,0.00,WSDL version 420,2013-08-17 09:35:00,
2013-08-17 05:40:00,78.3,75.1,29.91,ENE,68,0.0,0.0,90,0.00,,,0.00,WSDL version 420,2013-08-17 09:40:00,
2013-08-17 05:45:00,78.3,75.1,29.94,ENE,68,0.0,0.0,90,0.00,,,0.00,WSDL version 420,2013-08-17 09:45:00,
2013-08-17 05:50:00,78.3,75.1,29.94,ENE,68,0.0,0.0,90,0.00,,,0.00,WSDL version 420,2013-08-17 09:50:00,
2013-08-17 05:55:00,78.3,75.1,29.94,ENE,68,0.0,0.0,90,0.00,,,0.00,WSDL version 420,2013-08-17 09:55:00,
2013-08-17 06:00:00,78.3,75.1,29.91,ENE,68,0.0,0.0,90,0.00,,,0.00,WSDL version 420,2013-08-17 10:00:00,
2013-08-17 06:05:00,78.1,74.9,29.91,ENE,68,0.0,0.0,90,0.00,,,0.00,WSDL version 420,2013-08-17 10:05:00,
2013-08-17 06:10:00,78.2,75.0,29.91,ENE,68,0.0,0.0,90,0.00,,,0.00,WSDL version 420,2013-08-17 10:10:00,
2013-08-17 06:15:00,78.3,75.1,29.91,ENE,68,0.0,0.0,90,0.00,,,0.00,WSDL version 420,2013-08-17 10:15:00,
2013-08-17 06:20:00,78.3,75.1,29.91,ENE,68,0.0,0.0,90,0.00,,,0.00,WSDL version 420,2013-08-17 10:20:00,
2013-08-17 06:25:00,78.3,75.1,29.91,ENE,68,0.0,0.0,90,0.00,,,0.00,WSDL version 420,2013-08-17 10:25:00,
2013-08-17 06:30:00,78.2,75.0,29.94,ENE,68,0.0,0.0,90,0.00,,,0.00,WSDL version 420,2013-08-17 10:30:00,
2013-08-17 06:35:00,78.1,74.9,29.94,ENE,68,0.0,0.0,90,0.00,,,0.00,WSDL version 420,2013-08-17 10:35:00,
2013-08-17 06:40:00,78.1,74.9,29.94,ENE,68,0.0,0.0,90,0.00,,,0.00,WSDL version 420,2013-08-17 10:40:00,
2013-08-17 06:45:00,78.1,75.0,29.91,ENE,68,0.0,0.0,91,0.00,,,0.00,WSDL version 420,2013-08-17 10:45:00,
2013-08-17 06:50:00,78.3,75.5,29.91,ENE,68,0.0,0.0,91,0.00,,,0.00,WSDL version 420,2013-08-17 10:50:00,
2013-08-17 06:55:00,78.4,75.6,29.91,East,99,0.0,0.0,91,0.00,,,0.00,WSDL version 420,2013-08-17 10:55:00,
2013-08-17 07:00:00,78.6,75.8,29.94,East,90,0.0,0.0,91,0.00,,,0.00,WSDL version 420,2013-08-17 11:00:00,
2013-08-17 07:05:00,78.7,75.7,29.94,East,90,0.0,0.0,90,0.00,,,0.00,WSDL version 420,2013-08-17 11:05:00,
2013-08-17 07:10:00,78.9,75.8,29.94,East,90,0.0,0.0,91,0.00,,,0.00,WSDL version 420,2013-08-17 11:10:00,
2013-08-17 07:15:00,79.3,76.3,29.94,East,90,0.0,0.0,91,0.00,,,0.00,WSDL version 420,2013-08-17 11:15:00,
2013-08-17 07:20:00,79.5,76.6,29.94,East,90,0.0,0.0,91,0.00,,,0.00,WSDL version 420,2013-08-17 11:20:00,
2013-08-17 07:25:00,79.8,77.0,29.94,East,90,0.0,0.0,91,0.00,,,0.00,WSDL version 420,2013-08-17 11:25:00,
2013-08-17 07:30:00,80.0,76.9,29.94,East,90,0.0,0.0,90,0.00,,,0.00,WSDL version 420,2013-08-17 11:30:00,
2013-08-17 07:35:00,80.2,77.0,29.94,East,90,0.0,0.0,90,0.00,,,0.00,WSDL version 420,2013-08-17 11:35:00,
2013-08-17 07:40:00,80.5,77.1,29.94,East,90,0.0,0.0,89,0.00,,,0.00,WSDL version 420,2013-08-17 11:40:00,
2013-08-17 07:45:00,81.1,77.9,29.94,East,90,0.0,0.0,90,0.00,,,0.00,WSDL version 420,2013-08-17 11:45:00,
2013-08-17 07:50:00,81.9,78.5,29.94,ESE,117,0.0,1.1,89,0.00,,,0.00,WSDL version 420,2013-08-17 11:50:00,
2013-08-17 07:55:00,82.5,78.8,29.94,SSE,152,0.0,1.1,88,0.00,,,0.00,WSDL version 420,2013-08-17 11:55:00,
2013-08-17 08:00:00,82.8,78.6,29.94,SE,135,0.0,1.3,87,0.00,,,0.00,WSDL version 420,2013-08-17 12:00:00,
2013-08-17 08:05:00,82.9,78.0,29.94,ESE,113,0.0,1.3,84,0.00,,,0.00,WSDL version 420,2013-08-17 12:05:00,
2013-08-17 08:10:00,82.8,77.6,29.94,East,90,0.0,0.9,84,0.00,,,0.00,WSDL version 420,2013-08-17 12:10:00,
2013-08-17 08:15:00,83.3,77.8,29.97,SSE,152,0.0,0.0,83,0.00,,,0.00,WSDL version 420,2013-08-17 12:15:00,
2013-08-17 08:20:00,83.5,77.9,29.97,ENE,68,0.0,1.1,83,0.00,,,0.00,WSDL version 420,2013-08-17 12:20:00,
2013-08-17 08:25:00,83.8,77.7,29.97,ENE,63,0.0,2.9,82,0.00,,,0.00,WSDL version 420,2013-08-17 12:25:00,
2013-08-17 08:30:00,83.9,77.5,29.97,SE,135,0.0,2.9,81,0.00,,,0.00,WSDL version 420,2013-08-17 12:30:00,
2013-08-17 08:35:00,84.3,77.6,29.97,South,180,0.8,2.7,80,0.00,,,0.00,WSDL version 420,2013-08-17 12:35:00,
2013-08-17 08:40:00,84.8,78.0,29.97,South,180,0.8,2.7,80,0.00,,,0.00,WSDL version 420,2013-08-17 12:40:00,
2013-08-17 08:45:00,85.0,77.7,29.97,South,171,0.0,2.7,78,0.00,,,0.00,WSDL version 420,2013-08-17 12:45:00,
2013-08-17 08:50:00,85.1,77.5,29.97,South,186,0.8,2.0,78,0.00,,,0.00,WSDL version 420,2013-08-17 12:50:00,
2013-08-17 08:55:00,85.2,77.2,29.97,South,177,2.3,2.9,77,0.00,,,0.00,WSDL version 420,2013-08-17 12:55:00,
2013-08-17 09:00:00,85.8,77.6,29.97,ESE,121,1.8,5.4,75,0.00,,,0.00,WSDL version 420,2013-08-17 13:00:00,
2013-08-17 09:05:00,87.0,77.7,29.97,SSE,154,1.7,5.4,73,0.00,,,0.00,WSDL version 420,2013-08-17 13:05:00,
2013-08-17 09:10:00,88.1,77.1,29.97,ESE,119,2.1,4.9,68,0.00,,,0.00,WSDL version 420,2013-08-17 13:10:00,
2013-08-17 09:15:00,89.7,77.4,29.97,South,169,1.8,4.9,67,0.00,,,0.00,WSDL version 420,2013-08-17 13:15:00,
2013-08-17 09:20:00,91.2,77.7,29.97,SW,225,0.9,3.1,64,0.00,,,0.00,WSDL version 420,2013-08-17 13:20:00,
2013-08-17 09:25:00,92.3,77.3,29.97,ENE,65,1.6,2.9,60,0.00,,,0.00,WSDL version 420,2013-08-17 13:25:00,
2013-08-17 09:30:00,90.9,74.4,29.97,SE,126,2.0,4.3,58,0.00,,,0.00,WSDL version 420,2013-08-17 13:30:00,
2013-08-17 09:35:00,91.2,74.6,29.97,ESE,120,2.2,4.9,58,0.00,,,0.00,WSDL version 420,2013-08-17 13:35:00,
2013-08-17 09:40:00,91.7,74.5,29.97,SSW,194,1.5,4.9,57,0.00,,,0.00,WSDL version 420,2013-08-17 13:40:00,
2013-08-17 09:45:00,90.0,72.2,29.97,ENE,58,2.4,3.8,57,0.00,,,0.00,WSDL version 420,2013-08-17 13:45:00,
2013-08-17 09:50:00,92.1,75.2,29.97,SE,138,2.3,3.8,58,0.00,,,0.00,WSDL version 420,2013-08-17 13:50:00,
2013-08-17 09:55:00,94.0,75.9,29.97,East,86,1.6,4.3,54,0.00,,,0.00,WSDL version 420,2013-08-17 13:55:00,
2013-08-17 10:00:00,94.4,73.9,29.97,ENE,70,3.7,5.6,50,0.00,,,0.00,WSDL version 420,2013-08-17 14:00:00,
2013-08-17 10:05:00,94.0,73.4,29.97,East,87,2.7,5.6,51,0.00,,,0.00,WSDL version 420,2013-08-17 14:05:00,
2013-08-17 10:10:00,93.4,73.0,29.97,NE,39,1.2,4.3,52,0.00,,,0.00,WSDL version 420,2013-08-17 14:10:00,
2013-08-17 10:15:00,93.8,72.9,29.97,SSE,162,2.3,4.7,51,0.00,,,0.00,WSDL version 420,2013-08-17 14:15:00,
2013-08-17 10:20:00,93.5,72.4,29.97,SSE,148,1.8,6.5,51,0.00,,,0.00,WSDL version 420,2013-08-17 14:20:00,
2013-08-17 10:25:00,92.7,72.4,29.97,SE,132,1.6,6.5,53,0.00,,,0.00,WSDL version 420,2013-08-17 14:25:00,
2013-08-17 10:30:00,93.2,72.7,29.94,NNE,26,3.6,4.9,51,0.00,,,0.00,WSDL version 420,2013-08-17 14:30:00,
2013-08-17 10:35:00,92.7,72.4,29.94,SSE,154,1.9,4.9,52,0.00,,,0.00,WSDL version 420,2013-08-17 14:35:00,
2013-08-17 10:40:00,93.2,73.3,29.94,SSE,161,2.3,6.0,52,0.00,,,0.00,WSDL version 420,2013-08-17 14:40:00,
2013-08-17 10:45:00,93.3,72.9,29.97,SE,145,1.3,6.0,52,0.00,,,0.00,WSDL version 420,2013-08-17 14:45:00,
2013-08-17 10:50:00,92.4,72.6,29.97,East,86,3.2,4.3,52,0.00,,,0.00,WSDL version 420,2013-08-17 14:50:00,
2013-08-17 10:55:00,91.4,71.8,29.97,SE,124,1.8,4.3,54,0.00,,,0.00,WSDL version 420,2013-08-17 14:55:00,
2013-08-17 11:00:00,91.0,72.6,29.97,NE,38,1.8,5.6,55,0.00,,,0.00,WSDL version 420,2013-08-17 15:00:00,
2013-08-17 11:05:00,91.1,73.1,29.97,SSE,152,2.0,5.8,56,0.00,,,0.00,WSDL version 420,2013-08-17 15:05:00,
2013-08-17 11:10:00,91.0,72.0,29.97,SSE,164,5.4,8.1,54,0.00,,,0.00,WSDL version 420,2013-08-17 15:10:00,
2013-08-17 11:15:00,90.7,71.8,29.97,East,93,4.7,8.5,55,0.00,,,0.00,WSDL version 420,2013-08-17 15:15:00,
2013-08-17 11:20:00,91.7,73.5,29.97,ENE,75,1.6,8.5,56,0.00,,,0.00,WSDL version 420,2013-08-17 15:20:00,
2013-08-17 11:25:00,92.2,73.3,29.97,East,101,3.4,6.5,53,0.00,,,0.00,WSDL version 420,2013-08-17 15:25:00,
2013-08-17 11:30:00,91.3,72.3,29.97,East,90,2.6,6.5,55,0.00,,,0.00,WSDL version 420,2013-08-17 15:30:00,
2013-08-17 11:35:00,91.1,72.7,29.97,SE,124,3.6,7.2,55,0.00,,,0.00,WSDL version 420,2013-08-17 15:35:00,
2013-08-17 11:40:00,90.7,73.1,29.97,NE,35,3.2,7.2,56,0.00,,,0.00,WSDL version 420,2013-08-17 15:40:00,
2013-08-17 11:45:00,91.5,74.4,29.97,SE,143,3.4,6.5,58,0.00,,,0.00,WSDL version 420,2013-08-17 15:45:00,
2013-08-17 11:50:00,92.5,74.1,29.97,North,357,3.2,6.5,54,0.00,,,0.00,WSDL version 420,2013-08-17 15:50:00,
2013-08-17 11:55:00,93.0,74.5,29.97,SE,131,4.2,5.8,55,0.00,,,0.00,WSDL version 420,2013-08-17 15:55:00,
2013-08-17 12:00:00,93.1,73.6,29.97,East,101,3.2,6.0,54,0.00,,,0.00,WSDL version 420,2013-08-17 16:00:00,
2013-08-17 12:05:00,93.3,73.7,29.97,WSW,254,4.1,9.2,53,0.00,,,0.00,WSDL version 420,2013-08-17 16:05:00,
2013-08-17 12:10:00,93.2,72.8,29.97,NE,39,5.4,9.2,52,0.00,,,0.00,WSDL version 420,2013-08-17 16:10:00,
2013-08-17 12:15:00,93.6,73.6,29.97,SSE,160,3.1,8.7,51,0.00,,,0.00,WSDL version 420,2013-08-17 16:15:00,
2013-08-17 12:20:00,93.0,72.2,29.97,SE,139,2.0,5.6,51,0.00,,,0.00,WSDL version 420,2013-08-17 16:20:00,
2013-08-17 12:25:00,92.6,71.7,29.97,NNW,347,3.6,6.5,51,0.00,,,0.00,WSDL version 420,2013-08-17 16:25:00,
2013-08-17 12:30:00,92.6,72.3,29.97,NW,325,2.8,6.5,53,0.00,,,0.00,WSDL version 420,2013-08-17 16:30:00,
2013-08-17 12:35:00,92.7,71.9,29.97,ESE,113,3.3,6.5,50,0.00,,,0.00,WSDL version 420,2013-08-17 16:35:00,
2013-08-17 12:40:00,93.5,72.8,29.97,ESE,113,3.6,6.7,50,0.00,,,0.00,WSDL version 420,2013-08-17 16:40:00,
2013-08-17 12:45:00,93.8,72.3,29.97,SE,141,3.9,6.7,50,0.00,,,0.00,WSDL version 420,2013-08-17 16:45:00,
2013-08-17 12:50:00,93.9,71.8,29.97,ESE,109,3.4,6.5,49,0.00,,,0.00,WSDL version 420,2013-08-17 16:50:00,
2013-08-17 12:55:00,94.0,71.9,29.97,East,84,3.3,6.5,50,0.00,,,0.00,WSDL version 420,2013-08-17 16:55:00,
2013-08-17 13:00:00,94.5,72.6,29.97,ESE,104,3.1,8.1,50,0.00,,,0.00,WSDL version 420,2013-08-17 17:00:00,
2013-08-17 13:05:00,94.2,70.6,29.97,East,87,3.2,8.1,47,0.00,,,0.00,WSDL version 420,2013-08-17 17:05:00,
2013-08-17 13:10:00,94.1,70.6,29.97,ENE,75,3.7,7.8,46,0.00,,,0.00,WSDL version 420,2013-08-17 17:10:00,
2013-08-17 13:15:00,93.0,68.3,29.97,East,82,4.1,8.1,46,0.00,,,0.00,WSDL version 420,2013-08-17 17:15:00,
2013-08-17 13:20:00,93.0,69.5,29.97,ESE,104,3.5,8.1,47,0.00,,,0.00,WSDL version 420,2013-08-17 17:20:00,
2013-08-17 13:25:00,93.9,71.5,29.97,SE,135,3.8,6.5,48,0.00,,,0.00,WSDL version 420,2013-08-17 17:25:00,
2013-08-17 13:30:00,93.9,70.3,29.94,SE,132,3.9,7.6,47,0.00,,,0.00,WSDL version 420,2013-08-17 17:30:00,
2013-08-17 13:35:00,94.6,71.4,29.94,SSE,158,3.5,7.6,47,0.00,,,0.00,WSDL version 420,2013-08-17 17:35:00,
2013-08-17 13:40:00,94.3,70.2,29.94,ENE,65,3.2,6.9,45,0.00,,,0.00,WSDL version 420,2013-08-17 17:40:00,
2013-08-17 13:45:00,93.0,67.9,29.97,East,79,3.7,6.5,44,0.00,,,0.00,WSDL version 420,2013-08-17 17:45:00,
2013-08-17 13:50:00,92.8,69.6,29.97,SSW,199,2.3,6.5,48,0.00,,,0.00,WSDL version 420,2013-08-17 17:50:00,
2013-08-17 13:55:00,93.9,70.3,29.97,SE,131,2.8,6.7,47,0.00,,,0.00,WSDL version 420,2013-08-17 17:55:00,
2013-08-17 14:00:00,94.6,70.6,29.94,SE,135,3.0,6.7,46,0.00,,,0.00,WSDL version 420,2013-08-17 18:00:00,
2013-08-17 14:05:00,93.8,67.8,29.94,ENE,60,5.7,7.4,43,0.00,,,0.00,WSDL version 420,2013-08-17 18:05:00,
2013-08-17 14:10:00,93.6,67.5,29.94,ESE,113,3.7,7.4,42,0.00,,,0.00,WSDL version 420,2013-08-17 18:10:00,
2013-08-17 14:15:00,94.0,67.4,29.94,NNE,32,3.4,7.2,44,0.00,,,0.00,WSDL version 420,2013-08-17 18:15:00,
2013-08-17 14:20:00,94.7,69.8,29.94,ENE,64,3.1,7.2,44,0.00,,,0.00,WSDL version 420,2013-08-17 18:20:00,
2013-08-17 14:25:00,94.7,68.4,29.94,ENE,68,3.1,6.5,42,0.00,,,0.00,WSDL version 420,2013-08-17 18:25:00,
2013-08-17 14:30:00,94.6,68.0,29.94,SSW,211,3.4,6.5,41,0.00,,,0.00,WSDL version 420,2013-08-17 18:30:00,
2013-08-17 14:35:00,94.6,67.7,29.94,ENE,71,5.0,7.4,41,0.00,,,0.00,WSDL version 420,2013-08-17 18:35:00,
2013-08-17 14:40:00,94.5,67.5,29.94,ESE,105,3.3,8.7,41,0.00,,,0.00,WSDL version 420,2013-08-17 18:40:00,
2013-08-17 14:45:00,94.9,68.0,29.94,ENE,75,2.5,8.7,41,0.00,,,0.00,WSDL version 420,2013-08-17 18:45:00,
2013-08-17 14:50:00,95.0,68.0,29.94,SE,132,3.5,7.2,42,0.00,,,0.00,WSDL version 420,2013-08-17 18:50:00,
2013-08-17 14:55:00,94.8,68.8,29.94,SSE,164,1.4,6.3,44,0.00,,,0.00,WSDL version 420,2013-08-17 18:55:00,
2013-08-17 15:00:00,95.0,69.4,29.94,ENE,77,4.5,6.3,43,0.00,,,0.00,WSDL version 420,2013-08-17 19:00:00,
2013-08-17 15:05:00,95.0,68.5,29.94,SSE,160,4.4,9.4,42,0.00,,,0.00,WSDL version 420,2013-08-17 19:05:00,
2013-08-17 15:10:00,95.0,69.1,29.94,ENE,68,2.5,9.4,43,0.00,,,0.00,WSDL version 420,2013-08-17 19:10:00,
2013-08-17 15:15:00,94.2,67.6,29.91,East,90,2.6,9.4,42,0.00,,,0.00,WSDL version 420,2013-08-17 19:15:00,
2013-08-17 15:20:00,95.1,69.7,29.91,East,79,4.3,6.3,43,0.00,,,0.00,WSDL version 420,2013-08-17 19:20:00,
2013-08-17 15:25:00,94.2,68.1,29.91,NNW,341,2.7,8.5,43,0.00,,,0.00,WSDL version 420,2013-08-17 19:25:00,
2013-08-17 15:30:00,94.4,68.8,29.91,ENE,76,3.8,8.5,44,0.00,,,0.00,WSDL version 420,2013-08-17 19:30:00,
2013-08-17 15:35:00,94.2,69.8,29.91,SE,138,3.1,6.5,46,0.00,,,0.00,WSDL version 420,2013-08-17 19:35:00,
2013-08-17 15:40:00,93.4,69.7,29.91,NE,53,4.6,8.5,46,0.00,,,0.00,WSDL version 420,2013-08-17 19:40:00,
2013-08-17 15:45:00,92.2,69.1,29.91,East,79,4.0,8.5,47,0.00,,,0.00,WSDL version 420,2013-08-17 19:45:00,
2013-08-17 15:50:00,91.0,68.5,29.91,ENE,65,4.5,7.6,48,0.00,,,0.00,WSDL version 420,2013-08-17 19:50:00,
2013-08-17 15:55:00,91.2,68.8,29.91,East,83,3.8,10.1,48,0.00,,,0.00,WSDL version 420,2013-08-17 19:55:00,
2013-08-17 16:00:00,92.3,70.6,29.94,SE,131,2.8,10.1,50,0.00,,,0.00,WSDL version 420,2013-08-17 20:00:00,
2013-08-17 16:05:00,93.1,69.9,29.94,ENE,64,4.6,9.2,46,0.00,,,0.00,WSDL version 420,2013-08-17 20:05:00,
2013-08-17 16:10:00,93.3,69.4,29.94,East,85,3.5,9.6,46,0.00,,,0.00,WSDL version 420,2013-08-17 20:10:00,
2013-08-17 16:15:00,93.0,67.9,29.91,East,98,2.9,9.6,44,0.00,,,0.00,WSDL version 420,2013-08-17 20:15:00,
2013-08-17 16:20:00,92.7,68.0,29.91,NNW,341,3.9,8.5,45,0.00,,,0.00,WSDL version 420,2013-08-17 20:20:00,
2013-08-17 16:25:00,93.4,68.7,29.91,ESE,119,4.3,7.6,44,0.00,,,0.00,WSDL version 420,2013-08-17 20:25:00,
2013-08-17 16:30:00,93.0,67.4,29.91,NNE,32,3.0,8.5,43,0.00,,,0.00,WSDL version 420,2013-08-17 20:30:00,
2013-08-17 16:35:00,92.6,67.7,29.91,ESE,122,3.4,8.5,45,0.00,,,0.00,WSDL version 420,2013-08-17 20:35:00,
2013-08-17 16:40:00,92.7,68.3,29.91,SE,131,3.4,8.5,44,0.00,,,0.00,WSDL version 420,2013-08-17 20:40:00,
2013-08-17 16:45:00,93.4,68.6,29.91,ENE,74,3.3,5.4,43,0.00,,,0.00,WSDL version 420,2013-08-17 20:45:00,
2013-08-17 16:50:00,93.2,68.3,29.91,North,350,2.7,5.6,45,0.00,,,0.00,WSDL version 420,2013-08-17 20:50:00,
2013-08-17 16:55:00,93.1,68.6,29.91,ESE,106,2.2,6.9,45,0.00,,,0.00,WSDL version 420,2013-08-17 20:55:00,
2013-08-17 17:00:00,93.2,68.4,29.88,ENE,68,5.5,6.9,44,0.00,,,0.00,WSDL version 420,2013-08-17 21:00:00,
2013-08-17 17:05:00,92.2,68.0,29.88,ESE,110,1.9,6.7,46,0.00,,,0.00,WSDL version 420,2013-08-17 21:05:00,
2013-08-17 17:10:00,91.9,68.2,29.88,SE,146,2.7,4.9,46,0.00,,,0.00,WSDL version 420,2013-08-17 21:10:00,
2013-08-17 17:15:00,92.3,68.3,29.88,ESE,113,2.7,4.7,46,0.00,,,0.00,WSDL version 420,2013-08-17 21:15:00,
2013-08-17 17:20:00,92.6,67.7,29.88,NE,53,3.7,4.9,44,0.00,,,0.00,WSDL version 420,2013-08-17 21:20:00,
2013-08-17 17:25:00,92.3,66.5,29.88,SE,138,3.4,9.4,43,0.00,,,0.00,WSDL version 420,2013-08-17 21:25:00,
2013-08-17 17:30:00,92.5,66.6,29.91,ENE,65,2.5,9.4,43,0.00,,,0.00,WSDL version 420,2013-08-17 21:30:00,
2013-08-17 17:35:00,92.7,67.0,29.91,SSE,167,3.0,5.6,43,0.00,,,0.00,WSDL version 420,2013-08-17 21:35:00,
2013-08-17 17:40:00,93.0,67.2,29.91,SSW,200,2.9,4.3,43,0.00,,,0.00,WSDL version 420,2013-08-17 21:40:00,
2013-08-17 17:45:00,92.8,66.8,29.91,SE,139,1.9,5.6,43,0.00,,,0.00,WSDL version 420,2013-08-17 21:45:00,
2013-08-17 17:50:00,92.5,66.6,29.91,NW,310,2.9,6.0,43,0.00,,,0.00,WSDL version 420,2013-08-17 21:50:00,
2013-08-17 17:55:00,91.7,66.0,29.91,East,90,2.9,6.0,43,0.00,,,0.00,WSDL version 420,2013-08-17 21:55:00,
2013-08-17 18:00:00,91.3,66.2,29.91,SSW,200,2.2,5.4,44,0.00,,,0.00,WSDL version 420,2013-08-17 22:00:00,
2013-08-17 18:05:00,90.8,65.9,29.91,ESE,116,2.9,5.4,44,0.00,,,0.00,WSDL version 420,2013-08-17 22:05:00,
2013-08-17 18:10:00,90.5,65.6,29.91,NE,45,2.8,4.0,44,0.00,,,0.00,WSDL version 420,2013-08-17 22:10:00,
2013-08-17 18:15:00,90.1,66.2,29.91,ESE,116,2.3,5.8,46,0.00,,,0.00,WSDL version 420,2013-08-17 22:15:00,
2013-08-17 18:20:00,89.9,66.6,29.91,ENE,68,2.3,5.8,47,0.00,,,0.00,WSDL version 420,2013-08-17 22:20:00,
2013-08-17 18:25:00,89.6,66.4,29.91,ESE,118,2.2,5.6,46,0.00,,,0.00,WSDL version 420,2013-08-17 22:25:00,
2013-08-17 18:30:00,89.4,66.5,29.91,NE,55,3.4,5.6,47,0.00,,,0.00,WSDL version 420,2013-08-17 22:30:00,
2013-08-17 18:35:00,89.1,66.4,29.91,East,96,1.7,5.4,48,0.00,,,0.00,WSDL version 420,2013-08-17 22:35:00,
2013-08-17 18:40:00,88.9,66.4,29.91,ENE,64,2.5,5.4,47,0.00,,,0.00,WSDL version 420,2013-08-17 22:40:00,
2013-08-17 18:45:00,88.6,66.3,29.94,ENE,71,2.0,6.5,48,0.00,,,0.00,WSDL version 420,2013-08-17 22:45:00,
2013-08-17 18:50:00,88.1,66.0,29.94,ENE,64,3.1,6.5,48,0.00,,,0.00,WSDL version 420,2013-08-17 22:50:00,
2013-08-17 18:55:00,87.7,66.0,29.94,ENE,68,1.3,5.8,49,0.00,,,0.00,WSDL version 420,2013-08-17 22:55:00,
2013-08-17 19:00:00,87.4,66.8,29.94,NW,325,2.1,5.8,51,0.00,,,0.00,WSDL version 420,2013-08-17 23:00:00,
2013-08-17 19:05:00,87.2,66.9,29.94,ESE,103,2.2,5.4,51,0.00,,,0.00,WSDL version 420,2013-08-17 23:05:00,
2013-08-17 19:10:00,87.1,67.5,29.94,SSW,199,2.1,5.4,53,0.00,,,0.00,WSDL version 420,2013-08-17 23:10:00,
2013-08-17 19:15:00,87.0,67.8,29.94,ENE,76,0.5,4.0,53,0.00,,,0.00,WSDL version 420,2013-08-17 23:15:00,
2013-08-17 19:20:00,86.7,67.6,29.94,East,81,3.8,6.5,54,0.00,,,0.00,WSDL version 420,2013-08-17 23:20:00,
2013-08-17 19:25:00,86.5,67.8,29.94,East,84,2.1,6.5,54,0.00,,,0.00,WSDL version 420,2013-08-17 23:25:00,
2013-08-17 19:30:00,86.3,67.9,29.94,ENE,64,2.2,5.6,55,0.00,,,0.00,WSDL version 420,2013-08-17 23:30:00,
2013-08-17 19:35:00,86.1,68.0,29.94,NE,55,3.2,6.0,55,0.00,,,0.00,WSDL version 420,2013-08-17 23:35:00,
2013-08-17 19:40:00,85.8,68.5,29.94,SE,132,1.5,6.0,56,0.00,,,0.00,WSDL version 420,2013-08-17 23:40:00,
2013-08-17 19:45:00,85.7,69.0,29.94,ESE,107,3.5,4.3,58,0.00,,,0.00,WSDL version 420,2013-08-17 23:45:00,
2013-08-17 19:50:00,85.5,69.0,29.94,ENE,75,1.3,4.3,58,0.00,,,0.00,WSDL version 420,2013-08-17 23:50:00,
2013-08-17 19:55:00,85.3,69.3,29.94,ENE,68,1.3,3.1,59,0.00,,,0.00,WSDL version 420,2013-08-17 23:55:00,
2013-08-17 20:00:00,85.1,69.6,29.94,NNW,338,1.1,3.4,60,0.00,,,0.00,WSDL version 420,2013-08-18 00:00:00,
2013-08-17 20:05:00,85.0,69.9,29.94,NNW,338,1.1,3.4,61,0.00,,,0.00,WSDL version 420,2013-08-18 00:05:00,
2013-08-17 20:10:00,84.8,70.2,29.94,NNW,338,1.1,3.4,62,0.00,,,0.00,WSDL version 420,2013-08-18 00:10:00,
2013-08-17 20:15:00,84.6,70.2,29.97,ESE,113,0.9,3.4,62,0.00,,,0.00,WSDL version 420,2013-08-18 00:15:00,
2013-08-17 20:20:00,84.6,70.3,29.97,East,101,2.0,3.4,63,0.00,,,0.00,WSDL version 420,2013-08-18 00:20:00,
2013-08-17 20:25:00,84.4,70.5,29.97,SE,135,0.6,3.4,63,0.00,,,0.00,WSDL version 420,2013-08-18 00:25:00,
2013-08-17 20:30:00,84.3,70.3,29.97,ESE,113,1.1,3.4,63,0.00,,,0.00,WSDL version 420,2013-08-18 00:30:00,
2013-08-17 20:35:00,84.1,70.4,29.97,ESE,113,0.0,1.3,64,0.00,,,0.00,WSDL version 420,2013-08-18 00:35:00,
2013-08-17 20:40:00,83.9,70.5,29.97,ESE,113,0.0,0.0,64,0.00,,,0.00,WSDL version 420,2013-08-18 00:40:00,
2013-08-17 20:45:00,83.8,70.7,29.97,ESE,113,0.0,0.0,65,0.00,,,0.00,WSDL version 420,2013-08-18 00:45:00,
2013-08-17 20:50:00,83.7,70.7,29.97,ENE,68,1.6,2.5,65,0.00,,,0.00,WSDL version 420,2013-08-18 00:50:00,
2013-08-17 20:55:00,83.7,70.7,29.97,ENE,68,0.0,2.5,65,0.00,,,0.00,WSDL version 420,2013-08-18 00:55:00,
2013-08-17 21:00:00,83.5,70.9,29.94,NE,45,0.0,0.0,66,0.00,,,0.00,WSDL version 420,2013-08-18 01:00:00,
2013-08-17 21:05:00,83.3,70.8,29.94,NE,45,0.0,0.0,66,0.00,,,0.00,WSDL version 420,2013-08-18 01:05:00,
2013-08-17 21:10:00,83.2,70.8,29.94,NE,45,0.0,0.0,67,-99.99,,,-99.99,WSDL version 420,2013-08-18 01:10:00,
2013-08-17 21:15:00,83.1,71.0,29.94,North,0,0.0,0.0,67,0.00,,,0.00,WSDL version 420,2013-08-18 01:15:00,
2013-08-17 21:20:00,82.9,70.9,29.94,NE,45,0.7,1.1,67,0.00,,,0.00,WSDL version 420,2013-08-18 01:20:00,
2013-08-17 21:25:00,82.9,71.2,29.94,NNE,23,1.1,1.1,68,0.00,,,0.00,WSDL version 420,2013-08-18 01:25:00,
2013-08-17 21:30:00,82.9,71.2,29.97,NNE,23,1.1,1.1,68,-99.99,,,-99.99,WSDL version 420,2013-08-18 01:30:00,
2013-08-17 21:35:00,82.8,71.1,29.97,NNE,23,1.1,1.1,68,0.00,,,0.00,WSDL version 420,2013-08-18 01:35:00,
2013-08-17 21:40:00,82.8,71.1,29.97,North,0,0.0,1.1,68,0.00,,,0.00,WSDL version 420,2013-08-18 01:40:00,
2013-08-17 21:45:00,82.7,71.0,29.97,North,-999,-999.0,-999.0,68,-99.99,,,-99.99,WSDL version 420,2013-08-18 01:45:00,
2013-08-17 21:50:00,82.6,71.0,29.97,North,-999,-999.0,-999.0,68,-99.99,,,-99.99,WSDL version 420,2013-08-18 01:50:00,
2013-08-17 21:55:00,82.6,71.1,29.97,North,-999,-999.0,-999.0,69,-99.99,,,-99.99,WSDL version 420,2013-08-18 01:55:00,
2013-08-17 22:00:00,82.4,71.3,29.97,North,-999,-999.0,-999.0,69,-99.99,,,-99.99,WSDL version 420,2013-08-18 02:00:00,
2013-08-17 22:05:00,82.4,71.2,29.97,North,-999,-999.0,-999.0,69,-99.99,,,-99.99,WSDL version 420,2013-08-18 02:05:00,
2013-08-17 22:10:00,82.4,71.2,29.97,North,-999,-999.0,-999.0,69,-99.99,,,-99.99,WSDL version 420,2013-08-18 02:10:00,
2013-08-17 22:15:00,82.4,71.4,29.97,North,-999,-999.0,-999.0,70,-99.99,,,-99.99,WSDL version 420,2013-08-18 02:15:00,
2013-08-17 22:20:00,82.2,71.5,29.97,North,-999,-999.0,-999.0,70,-99.99,,,-99.99,WSDL version 420,2013-08-18 02:20:00,
2013-08-17 22:25:00,82.2,71.5,29.97,North,-999,-999.0,-999.0,70,0.00,,,0.00,WSDL version 420,2013-08-18 02:25:00,
2013-08-17 22:30:00,82.2,71.5,29.97,North,-999,-999.0,-999.0,70,0.00,,,0.00,WSDL version 420,2013-08-18 02:30:00,
2013-08-17 22:35:00,82.2,71.6,29.97,North,-999,-999.0,-999.0,71,-99.99,,,-99.99,WSDL version 420,2013-08-18 02:35:00,
2013-08-17 22:40:00,82.2,71.5,29.97,North,-999,-999.0,-999.0,70,0.00,,,0.00,WSDL version 420,2013-08-18 02:40:00,
2013-08-17 22:45:00,82.2,71.7,29.97,North,-999,-999.0,-999.0,71,0.00,,,0.00,WSDL version 420,2013-08-18 02:45:00,
2013-08-17 22:50:00,82.2,71.5,29.97,North,-999,-999.0,-999.0,70,-99.99,,,-99.99,WSDL version 420,2013-08-18 02:50:00,
2013-08-17 22:55:00,82.2,71.5,29.97,North,-999,-999.0,-999.0,70,-99.99,,,-99.99,WSDL version 420,2013-08-18 02:55:00,
2013-08-17 23:00:00,82.2,71.6,30.00,North,-999,-999.0,-999.0,71,-99.99,,,-99.99,WSDL version 420,2013-08-18 03:00:00,
2013-08-17 23:05:00,82.0,71.7,30.00,North,-999,-999.0,-999.0,71,-99.99,,,-99.99,WSDL version 420,2013-08-18 03:05:00,
2013-08-17 23:10:00,82.0,71.8,30.00,North,-999,-999.0,-999.0,72,-99.99,,,-99.99,WSDL version 420,2013-08-18 03:10:00,
2013-08-17 23:15:00,82.0,71.9,29.97,ENE,68,2.0,2.5,72,0.00,,,0.00,WSDL version 420,2013-08-18 03:15:00,
2013-08-17 23:20:00,82.0,72.1,29.97,East,90,1.6,2.5,72,0.00,,,0.00,WSDL version 420,2013-08-18 03:20:00,
2013-08-17 23:25:00,82.0,71.8,29.97,East,90,1.6,0.0,71,-99.99,,,-99.99,WSDL version 420,2013-08-18 03:25:00,
2013-08-17 23:30:00,82.0,71.8,29.97,East,90,1.6,0.0,71,-99.99,,,-99.99,WSDL version 420,2013-08-18 03:30:00,
2013-08-17 23:35:00,81.9,71.5,29.97,North,0,0.0,0.0,71,0.00,,,0.00,WSDL version 420,2013-08-18 03:35:00,
2013-08-17 23:40:00,81.9,71.5,29.97,North,0,0.0,0.0,71,0.00,,,0.00,WSDL version 420,2013-08-18 03:40:00,
2013-08-17 23:45:00,81.9,71.5,29.97,North,-999,-999.0,-999.0,71,0.00,,,0.00,WSDL version 420,2013-08-18 03:45:00,
2013-08-17 23:50:00,81.9,71.5,29.97,North,-999,-999.0,-999.0,71,0.00,,,0.00,WSDL version 420,2013-08-18 03:50:00,
2013-08-17 23:55:00,81.9,71.4,29.97,North,-999,-999.0,-999.0,71,-99.99,,,-99.99,WSDL version 420,2013-08-18 03:55:00,